Weather History for Gainesville, FL

Change the Weather History Date:

Sunday, March 9, 2014

  Actual Average Record
Temperature  
Mean Temperature 59 °F 61 °F  
Max Temperature 76 °F 73 °F 89 °F (1907)
Min Temperature 41 °F 49 °F 28 °F (1996)
Degree Days  
Heating Degree Days 6 5  
Month to date heating degree days 84 53  
Since 1 July heating degree days 994 1087  
Cooling Degree Days 0 2  
Month to date cooling degree days 0 12  
Year to date cooling degree days 37 44  
Growing Degree Days 8 (Base 50)    
Moisture  
Dew Point 46 °F    
Average Humidity 68    
Maximum Humidity 100    
Minimum Humidity 36    
Precipitation  
Precipitation 0.00 in 0.14 in 2.85 in (1988)
Month to date precipitation 1.01 1.38  
Year to date precipitation 10.58 7.89  
Snow  
Snow 0.00 in 0.00 in 0.00 in ()
Month to date snowfall 0.0 0.0  
Since 1 July snowfall 0.0 0.0  
Snow Depth 0.00 in    
Sea Level Pressure  
Sea Level Pressure 30.16 in    
Wind  
Wind Speed 4 mph (WNW)    
Max Wind Speed 12 mph    
Max Gust Speed 15 mph    
Visibility 10 miles    
Events      
T = Trace of Precipitation, MM = Missing Value Source: NWS Daily Summary

Daily Weather History Graph

Daily Weather History Graph

Search for Another Location

Airport:

Trip Planner

Search our weather history database for the weather conditions in past years. The results will help you decide how hot, cold, wet, or windy it might be!

Date:

Astronomy

Mar. 09, 2014 Rise Set
Actual Time 7:45 AM EDT 7:33 PM EDT
Civil Twilight 7:22 AM EDT 7:57 PM EDT
Nautical Twilight 6:54 AM EDT 8:25 PM EDT
Astronomical Twilight 6:26 AM EDT 8:52 PM EDT
Moon 1:43 PM EDT (3/9) 3:52 AM EDT (3/9)
Length of Visible Light 12h 35m
Length of Day
11h 47m
First Quarter, 61% of the Moon is Illuminated
Mar 9
First Quarter
Mar 16
Full
Mar 23
Last Quarter
Mar 30
New
Apr 7
First Quarter

Hourly Weather History & Observations

Time (EDT) Temp. Windchill Dew Point Humidity Pressure Visibility Wind Dir Wind Speed Gust Speed Precip Events Conditions
12:53 AM 46.0 °F - 44.1 °F 93% 30.18 in 10.0 mi Calm Calm - N/A   Clear
1:53 AM 45.0 °F - 43.0 °F 93% 30.17 in 10.0 mi Calm Calm - N/A   Clear
3:53 AM 44.1 °F - 42.1 °F 93% 30.16 in 10.0 mi Calm Calm - N/A   Clear
4:53 AM 43.0 °F - 43.0 °F 100% 30.16 in 10.0 mi Calm Calm - N/A   Clear
5:53 AM 42.1 °F 40.2 °F 41.0 °F 96% 30.17 in 10.0 mi West 3.5 mph - N/A   Clear
6:53 AM 42.1 °F - 39.9 °F 92% 30.18 in 10.0 mi Calm Calm - N/A   Clear
7:53 AM 41.0 °F - 39.9 °F 96% 30.20 in 10.0 mi Calm Calm - N/A   Clear
8:53 AM 48.0 °F - 46.0 °F 93% 30.21 in 10.0 mi North - - N/A   Clear
9:53 AM 57.0 °F - 48.9 °F 74% 30.22 in 10.0 mi Calm Calm - N/A   Clear
10:53 AM 64.0 °F - 50.0 °F 60% 30.24 in 10.0 mi NW 5.8 mph - N/A   Clear
11:53 AM 68.0 °F - 48.9 °F 50% 30.22 in 10.0 mi WNW 4.6 mph - N/A   Clear
12:53 PM 70.0 °F - 48.9 °F 47% 30.19 in 10.0 mi NW 3.5 mph - N/A   Clear
1:53 PM 72.0 °F - 46.9 °F 41% 30.16 in 10.0 mi Variable 5.8 mph - N/A   Clear
2:53 PM 73.9 °F - 46.0 °F 37% 30.14 in 10.0 mi NW 9.2 mph - N/A   Clear
3:53 PM 75.0 °F - 46.9 °F 37% 30.12 in 10.0 mi Variable 4.6 mph - N/A   Clear
4:53 PM 75.0 °F - 46.9 °F 37% 30.11 in 10.0 mi West 10.4 mph - N/A   Clear
5:53 PM 75.0 °F - 46.0 °F 36% 30.10 in 10.0 mi WNW 6.9 mph - N/A   Clear
6:53 PM 71.1 °F - 46.0 °F 41% 30.10 in 10.0 mi West 8.1 mph - N/A   Clear
7:53 PM 66.0 °F - 48.0 °F 52% 30.10 in 10.0 mi West 3.5 mph - N/A   Clear
8:53 PM 64.9 °F - 51.1 °F 61% 30.12 in 10.0 mi West 8.1 mph - N/A   Clear
9:53 PM 62.1 °F - 48.9 °F 62% 30.13 in 10.0 mi West 5.8 mph - N/A   Clear
10:53 PM 59.0 °F - 48.0 °F 67% 30.16 in 10.0 mi West 6.9 mph - N/A   Clear
11:53 PM 55.9 °F - 46.9 °F 72% 30.14 in 10.0 mi West 5.8 mph - N/A   Clear
12:53 AM 55.9 °F - 46.9 °F 72% 30.13 in 10.0 mi West 5.8 mph - N/A   Clear